Year,Month,Day,Hour,Minute,Value (Times are PST for temperature in C)
2018,06,11,00,00,8.30
2018,06,11,00,01,8.30
2018,06,11,00,02,8.30
2018,06,11,00,03,8.30
2018,06,11,00,04,8.30
2018,06,11,00,05,8.30
2018,06,11,00,06,8.30
2018,06,11,00,07,8.30
2018,06,11,00,08,8.30
2018,06,11,00,09,8.30
2018,06,11,00,10,8.30
2018,06,11,00,11,8.30
2018,06,11,00,12,8.30
2018,06,11,00,13,8.30
2018,06,11,00,14,8.30
2018,06,11,00,15,8.30
2018,06,11,00,16,8.30
2018,06,11,00,17,8.30
2018,06,11,00,18,8.30
2018,06,11,00,19,8.30
2018,06,11,00,20,8.30
2018,06,11,00,21,8.30
2018,06,11,00,22,8.30
2018,06,11,00,23,8.30
2018,06,11,00,24,8.30
2018,06,11,00,25,8.30
2018,06,11,00,26,8.20
2018,06,11,00,27,8.20
2018,06,11,00,28,8.20
2018,06,11,00,29,8.20
2018,06,11,00,30,8.20
2018,06,11,00,31,8.10
2018,06,11,00,32,8.10
2018,06,11,00,33,8.10
2018,06,11,00,34,8.00
2018,06,11,00,35,8.00
2018,06,11,00,36,8.00
2018,06,11,00,37,7.90
2018,06,11,00,38,7.90
2018,06,11,00,39,7.90
2018,06,11,00,40,7.90
2018,06,11,00,41,7.90
2018,06,11,00,42,7.80
2018,06,11,00,43,7.80
2018,06,11,00,44,7.80
2018,06,11,00,45,7.80
2018,06,11,00,46,7.80
2018,06,11,00,47,7.70
2018,06,11,00,48,7.70
2018,06,11,00,49,7.70
2018,06,11,00,50,7.70
2018,06,11,00,51,7.70
2018,06,11,00,52,7.60
2018,06,11,00,53,7.60
2018,06,11,00,54,7.60
2018,06,11,00,55,7.60
2018,06,11,00,56,7.50
2018,06,11,00,57,7.50
2018,06,11,00,58,7.50
2018,06,11,00,59,7.40
2018,06,11,01,00,7.40
2018,06,11,01,01,7.40
2018,06,11,01,02,7.40
2018,06,11,01,03,7.30
2018,06,11,01,04,7.30
2018,06,11,01,05,7.30
2018,06,11,01,06,7.30
2018,06,11,01,07,7.30
2018,06,11,01,08,7.20
2018,06,11,01,09,7.20
2018,06,11,01,10,7.20
2018,06,11,01,11,7.20
2018,06,11,01,12,7.20
2018,06,11,01,13,7.20
2018,06,11,01,14,7.20
2018,06,11,01,15,7.20
2018,06,11,01,16,7.10
2018,06,11,01,17,7.10
2018,06,11,01,18,7.10
2018,06,11,01,19,7.10
2018,06,11,01,20,7.10
2018,06,11,01,21,7.10
2018,06,11,01,22,7.10
2018,06,11,01,23,7.10
2018,06,11,01,24,7.10
2018,06,11,01,25,7.10
2018,06,11,01,26,7.00
2018,06,11,01,27,7.00
2018,06,11,01,28,7.00
2018,06,11,01,29,7.00
2018,06,11,01,30,6.90
2018,06,11,01,31,6.90
2018,06,11,01,32,6.90
2018,06,11,01,33,6.90
2018,06,11,01,34,6.90
2018,06,11,01,35,6.90
2018,06,11,01,36,6.90
2018,06,11,01,37,6.90
2018,06,11,01,38,6.80
2018,06,11,01,39,6.80
2018,06,11,01,40,6.80
2018,06,11,01,41,6.80
2018,06,11,01,42,6.80
2018,06,11,01,43,6.80
2018,06,11,01,44,6.80
2018,06,11,01,45,6.80
2018,06,11,01,46,6.80
2018,06,11,01,47,6.80
2018,06,11,01,48,6.80
2018,06,11,01,49,6.80
2018,06,11,01,50,6.80
2018,06,11,01,51,6.80
2018,06,11,01,52,6.80
2018,06,11,01,53,6.80
2018,06,11,01,54,6.70
2018,06,11,01,55,6.70
2018,06,11,01,56,6.70
2018,06,11,01,57,6.70
2018,06,11,01,58,6.70
2018,06,11,01,59,6.70
2018,06,11,02,00,6.70
2018,06,11,02,01,6.70
2018,06,11,02,02,6.70
2018,06,11,02,03,6.70
2018,06,11,02,04,6.70
2018,06,11,02,05,6.70
2018,06,11,02,06,6.70
2018,06,11,02,07,6.70
2018,06,11,02,08,6.70
2018,06,11,02,09,6.70
2018,06,11,02,10,6.70
2018,06,11,02,11,6.70
2018,06,11,02,12,6.60
2018,06,11,02,13,6.60
2018,06,11,02,14,6.60
2018,06,11,02,15,6.60
2018,06,11,02,16,6.60
2018,06,11,02,17,6.60
2018,06,11,02,18,6.60
2018,06,11,02,19,6.60
2018,06,11,02,20,6.50
2018,06,11,02,21,6.50
2018,06,11,02,22,6.50
2018,06,11,02,23,6.50
2018,06,11,02,24,6.50
2018,06,11,02,25,6.50
2018,06,11,02,26,6.50
2018,06,11,02,27,6.50
2018,06,11,02,28,6.50
2018,06,11,02,29,6.60
2018,06,11,02,30,6.60
2018,06,11,02,31,6.50
2018,06,11,02,32,6.50
2018,06,11,02,33,6.50
2018,06,11,02,34,6.50
2018,06,11,02,35,6.50
2018,06,11,02,36,6.50
2018,06,11,02,37,6.60
2018,06,11,02,38,6.60
2018,06,11,02,39,6.60
2018,06,11,02,40,6.60
2018,06,11,02,41,6.60
2018,06,11,02,42,6.50
2018,06,11,02,43,6.50
2018,06,11,02,44,6.50
2018,06,11,02,45,6.50
2018,06,11,02,46,6.50
2018,06,11,02,47,6.50
2018,06,11,02,48,6.50
2018,06,11,02,49,6.50
2018,06,11,02,50,6.50
2018,06,11,02,51,6.50
2018,06,11,02,52,6.50
2018,06,11,02,53,6.40
2018,06,11,02,54,6.40
2018,06,11,02,55,6.40
2018,06,11,02,56,6.40
2018,06,11,02,57,6.40
2018,06,11,02,58,6.40
2018,06,11,02,59,6.40
2018,06,11,03,00,6.40
2018,06,11,03,01,6.40
2018,06,11,03,02,6.40
2018,06,11,03,03,6.40
2018,06,11,03,04,6.40
2018,06,11,03,05,6.40
2018,06,11,03,06,6.30
2018,06,11,03,07,6.30
2018,06,11,03,08,6.30
2018,06,11,03,09,6.30
2018,06,11,03,10,6.30
2018,06,11,03,11,6.30
2018,06,11,03,12,6.30
2018,06,11,03,13,6.30
2018,06,11,03,14,6.30
2018,06,11,03,15,6.30
2018,06,11,03,16,6.30
2018,06,11,03,17,6.30
2018,06,11,03,18,6.30
2018,06,11,03,19,6.20
2018,06,11,03,20,6.20
2018,06,11,03,21,6.20
2018,06,11,03,22,6.20
2018,06,11,03,23,6.20
2018,06,11,03,24,6.20
2018,06,11,03,25,6.20
2018,06,11,03,26,6.20
2018,06,11,03,27,6.20
2018,06,11,03,28,6.20
2018,06,11,03,29,6.20
2018,06,11,03,30,6.20
2018,06,11,03,31,6.20
2018,06,11,03,32,6.20
2018,06,11,03,33,6.20
2018,06,11,03,34,6.20
2018,06,11,03,35,6.20
2018,06,11,03,36,6.20
2018,06,11,03,37,6.20
2018,06,11,03,38,6.10
2018,06,11,03,39,6.10
2018,06,11,03,40,6.10
2018,06,11,03,41,6.10
2018,06,11,03,42,6.10
2018,06,11,03,43,6.10
2018,06,11,03,44,6.10
2018,06,11,03,45,6.10
2018,06,11,03,46,6.00
2018,06,11,03,47,6.00
2018,06,11,03,48,6.00
2018,06,11,03,49,6.00
2018,06,11,03,50,6.00
2018,06,11,03,51,6.00
2018,06,11,03,52,5.90
2018,06,11,03,53,5.90
2018,06,11,03,54,5.90
2018,06,11,03,55,5.90
2018,06,11,03,56,5.90
2018,06,11,03,57,5.90
2018,06,11,03,58,5.90
2018,06,11,03,59,5.90
2018,06,11,04,00,5.90
2018,06,11,04,01,5.90
2018,06,11,04,02,5.90
2018,06,11,04,03,5.90
2018,06,11,04,04,5.90
2018,06,11,04,05,5.90
2018,06,11,04,06,5.90
2018,06,11,04,07,5.90
2018,06,11,04,08,5.90
2018,06,11,04,09,5.90
2018,06,11,04,10,5.90
2018,06,11,04,11,5.90
2018,06,11,04,12,5.90
2018,06,11,04,13,5.90
2018,06,11,04,14,5.90
2018,06,11,04,15,5.90
2018,06,11,04,16,5.90
2018,06,11,04,17,5.80
2018,06,11,04,18,5.80
2018,06,11,04,19,5.80
2018,06,11,04,20,5.80
2018,06,11,04,21,5.80
2018,06,11,04,22,5.80
2018,06,11,04,23,5.80
2018,06,11,04,24,5.80
2018,06,11,04,25,5.80
2018,06,11,04,26,5.80
2018,06,11,04,27,5.80
2018,06,11,04,28,5.80
2018,06,11,04,29,5.80
2018,06,11,04,30,5.80
2018,06,11,04,31,5.80
2018,06,11,04,32,5.90
2018,06,11,04,33,5.90
2018,06,11,04,34,5.90
2018,06,11,04,35,5.90
2018,06,11,04,36,5.90
2018,06,11,04,37,5.90
2018,06,11,04,38,5.90
2018,06,11,04,39,5.90
2018,06,11,04,40,5.90
2018,06,11,04,41,5.90
2018,06,11,04,42,5.80
2018,06,11,04,43,5.80
2018,06,11,04,44,5.80
2018,06,11,04,45,5.80
2018,06,11,04,46,5.80
2018,06,11,04,47,5.80
2018,06,11,04,48,5.80
2018,06,11,04,49,5.80
2018,06,11,04,50,5.70
2018,06,11,04,51,5.70
2018,06,11,04,52,5.70
2018,06,11,04,53,5.70
2018,06,11,04,54,5.70
2018,06,11,04,55,5.80
2018,06,11,04,56,5.80
2018,06,11,04,57,5.80
2018,06,11,04,58,5.80
2018,06,11,04,59,5.80
2018,06,11,05,00,5.80
2018,06,11,05,01,5.80
2018,06,11,05,02,5.70
2018,06,11,05,03,5.70
2018,06,11,05,04,5.70
2018,06,11,05,05,5.70
2018,06,11,05,06,5.70
2018,06,11,05,07,5.70
2018,06,11,05,08,5.70
2018,06,11,05,09,5.70
2018,06,11,05,10,5.70
2018,06,11,05,11,5.70
2018,06,11,05,12,5.70
2018,06,11,05,13,5.70
2018,06,11,05,14,5.70
2018,06,11,05,15,5.70
2018,06,11,05,16,5.70
2018,06,11,05,17,5.70
2018,06,11,05,18,5.80
2018,06,11,05,19,5.80
2018,06,11,05,20,5.80
2018,06,11,05,21,5.80
2018,06,11,05,22,5.80
2018,06,11,05,23,5.80
2018,06,11,05,24,5.80
2018,06,11,05,25,5.80
2018,06,11,05,26,5.80
2018,06,11,05,27,5.70
2018,06,11,05,28,5.70
2018,06,11,05,29,5.70
2018,06,11,05,30,5.70
2018,06,11,05,31,5.70
2018,06,11,05,32,5.70
2018,06,11,05,33,5.70
2018,06,11,05,34,5.70
2018,06,11,05,35,5.70
2018,06,11,05,36,5.70
2018,06,11,05,37,5.70
2018,06,11,05,38,5.70
2018,06,11,05,39,5.70
2018,06,11,05,40,5.70
2018,06,11,05,41,5.70
2018,06,11,05,42,5.70
2018,06,11,05,43,5.70
2018,06,11,05,44,5.70
2018,06,11,05,45,5.70
2018,06,11,05,46,5.70
2018,06,11,05,47,5.70
2018,06,11,05,48,5.70
2018,06,11,05,49,5.70
2018,06,11,05,50,5.70
2018,06,11,05,51,5.70
2018,06,11,05,52,5.70
2018,06,11,05,53,5.70
2018,06,11,05,54,5.70
2018,06,11,05,55,5.70
2018,06,11,05,56,5.70
2018,06,11,05,57,5.70
2018,06,11,05,58,5.70
2018,06,11,05,59,5.70
2018,06,11,06,00,5.70
2018,06,11,06,01,5.70
2018,06,11,06,02,5.70
2018,06,11,06,03,5.70
2018,06,11,06,04,5.70
2018,06,11,06,05,5.70
2018,06,11,06,06,5.70
2018,06,11,06,07,5.70
2018,06,11,06,08,5.70
2018,06,11,06,09,5.70
2018,06,11,06,10,5.70
2018,06,11,06,11,5.70
2018,06,11,06,12,5.70
2018,06,11,06,13,5.70
2018,06,11,06,14,5.70
2018,06,11,06,15,5.70
2018,06,11,06,16,5.70
2018,06,11,06,17,5.70
2018,06,11,06,18,5.70
2018,06,11,06,19,5.70
2018,06,11,06,20,5.70
2018,06,11,06,21,5.70
2018,06,11,06,22,5.70
2018,06,11,06,23,5.70
2018,06,11,06,24,5.70
2018,06,11,06,25,5.70
2018,06,11,06,26,5.70
2018,06,11,06,27,5.70
2018,06,11,06,28,5.70
2018,06,11,06,29,5.70
2018,06,11,06,30,5.70
2018,06,11,06,31,5.80
2018,06,11,06,32,5.80
2018,06,11,06,33,5.80
2018,06,11,06,34,5.80
2018,06,11,06,35,5.80
2018,06,11,06,36,5.80
2018,06,11,06,37,5.80
2018,06,11,06,38,5.90
2018,06,11,06,39,5.90
2018,06,11,06,40,5.90
2018,06,11,06,41,5.90
2018,06,11,06,42,5.90
2018,06,11,06,43,6.00
2018,06,11,06,44,6.00
2018,06,11,06,45,6.00
2018,06,11,06,46,6.00
2018,06,11,06,47,6.10
2018,06,11,06,48,6.10
2018,06,11,06,49,6.10
2018,06,11,06,50,6.10
2018,06,11,06,51,6.20
2018,06,11,06,52,6.20
2018,06,11,06,53,6.20
2018,06,11,06,54,6.30
2018,06,11,06,55,6.30
2018,06,11,06,56,6.30
2018,06,11,06,57,6.40
2018,06,11,06,58,6.40
2018,06,11,06,59,6.40
2018,06,11,07,00,6.50
2018,06,11,07,01,6.60
2018,06,11,07,02,6.60
2018,06,11,07,03,6.70
2018,06,11,07,04,6.80
2018,06,11,07,05,6.90
2018,06,11,07,06,7.00
2018,06,11,07,07,7.10
2018,06,11,07,08,7.20
2018,06,11,07,09,7.20
2018,06,11,07,10,7.30
2018,06,11,07,11,7.40
2018,06,11,07,12,7.40
2018,06,11,07,13,7.50
2018,06,11,07,14,7.60
2018,06,11,07,15,7.60
2018,06,11,07,16,7.70
2018,06,11,07,17,7.80
2018,06,11,07,18,7.90
2018,06,11,07,19,8.00
2018,06,11,07,20,8.10
2018,06,11,07,21,8.20
2018,06,11,07,22,8.20
2018,06,11,07,23,8.30
2018,06,11,07,24,8.40
2018,06,11,07,25,8.50
2018,06,11,07,26,8.50
2018,06,11,07,27,8.60
2018,06,11,07,28,8.70
2018,06,11,07,29,8.80
2018,06,11,07,30,8.80
2018,06,11,07,31,8.90
2018,06,11,07,32,8.90
2018,06,11,07,33,9.00
2018,06,11,07,34,9.00
2018,06,11,07,35,9.10
2018,06,11,07,36,9.20
2018,06,11,07,37,9.20
2018,06,11,07,38,9.30
2018,06,11,07,39,9.30
2018,06,11,07,40,9.40
2018,06,11,07,41,9.50
2018,06,11,07,42,9.60
2018,06,11,07,43,9.80
2018,06,11,07,44,9.90
2018,06,11,07,45,10.00
2018,06,11,07,46,10.10
2018,06,11,07,47,10.20
2018,06,11,07,48,10.30
2018,06,11,07,49,10.40
2018,06,11,07,50,10.40
2018,06,11,07,51,10.40
2018,06,11,07,52,10.40
2018,06,11,07,53,10.50
2018,06,11,07,54,10.60
2018,06,11,07,55,10.60
2018,06,11,07,56,10.60
2018,06,11,07,57,10.70
2018,06,11,07,58,10.80
2018,06,11,07,59,10.80
2018,06,11,08,00,10.90
2018,06,11,08,01,10.90
2018,06,11,08,02,11.00
2018,06,11,08,03,11.00
2018,06,11,08,04,11.10
2018,06,11,08,05,11.20
2018,06,11,08,06,11.20
2018,06,11,08,07,11.30
2018,06,11,08,08,11.30
2018,06,11,08,09,11.30
2018,06,11,08,10,11.40
2018,06,11,08,11,11.40
2018,06,11,08,12,11.40
2018,06,11,08,13,11.40
2018,06,11,08,14,11.40
2018,06,11,08,15,11.50
2018,06,11,08,16,11.50
2018,06,11,08,17,11.60
2018,06,11,08,18,11.60
2018,06,11,08,19,11.70
2018,06,11,08,20,11.80
2018,06,11,08,21,11.80
2018,06,11,08,22,11.90
2018,06,11,08,23,12.00
2018,06,11,08,24,12.10
2018,06,11,08,25,12.20
2018,06,11,08,26,12.20
2018,06,11,08,27,12.30
2018,06,11,08,28,12.40
2018,06,11,08,29,12.50
2018,06,11,08,30,12.50
2018,06,11,08,31,12.60
2018,06,11,08,32,12.70
2018,06,11,08,33,12.80
2018,06,11,08,34,12.90
2018,06,11,08,35,13.00
2018,06,11,08,36,13.10
2018,06,11,08,37,13.20
2018,06,11,08,38,13.30
2018,06,11,08,39,13.40
2018,06,11,08,40,13.50
2018,06,11,08,41,13.50
2018,06,11,08,42,13.60
2018,06,11,08,43,13.60
2018,06,11,08,44,13.60
2018,06,11,08,45,13.60
2018,06,11,08,46,13.50
2018,06,11,08,47,13.50
2018,06,11,08,48,13.40
2018,06,11,08,49,13.40
2018,06,11,08,50,13.30
2018,06,11,08,51,13.30
2018,06,11,08,52,13.20
2018,06,11,08,53,13.20
2018,06,11,08,54,13.20
2018,06,11,08,55,13.20
2018,06,11,08,56,13.30
2018,06,11,08,57,13.30
2018,06,11,08,58,13.30
2018,06,11,08,59,13.30
2018,06,11,09,00,13.40
2018,06,11,09,01,13.40
2018,06,11,09,02,13.40
2018,06,11,09,03,13.50
2018,06,11,09,04,13.50
2018,06,11,09,05,13.40
2018,06,11,09,06,13.40
2018,06,11,09,07,13.40
2018,06,11,09,08,13.30
2018,06,11,09,09,13.20
2018,06,11,09,10,13.20
2018,06,11,09,11,13.10
2018,06,11,09,12,13.00
2018,06,11,09,13,12.90
2018,06,11,09,14,12.80
2018,06,11,09,15,12.80
2018,06,11,09,16,12.80
2018,06,11,09,17,12.80
2018,06,11,09,18,12.80
2018,06,11,09,19,12.90
2018,06,11,09,20,12.90
2018,06,11,09,21,13.00
2018,06,11,09,22,13.00
2018,06,11,09,23,13.00
2018,06,11,09,24,13.00
2018,06,11,09,25,13.00
2018,06,11,09,26,13.00
2018,06,11,09,27,13.10
2018,06,11,09,28,13.10
2018,06,11,09,29,13.20
2018,06,11,09,30,13.30
2018,06,11,09,31,13.40
2018,06,11,09,32,13.50
2018,06,11,09,33,13.50
2018,06,11,09,34,13.40
2018,06,11,09,35,13.30
2018,06,11,09,36,13.20
2018,06,11,09,37,13.10
2018,06,11,09,38,13.10
2018,06,11,09,39,13.20
2018,06,11,09,40,13.20
2018,06,11,09,41,13.30
2018,06,11,09,42,13.30
2018,06,11,09,43,13.40
2018,06,11,09,44,13.40
2018,06,11,09,45,13.50
2018,06,11,09,46,13.60
2018,06,11,09,47,13.70
2018,06,11,09,48,13.80
2018,06,11,09,49,13.90
2018,06,11,09,50,13.90
2018,06,11,09,51,13.90
2018,06,11,09,52,14.00
2018,06,11,09,53,14.00
2018,06,11,09,54,13.90
2018,06,11,09,55,13.90
2018,06,11,09,56,13.90
2018,06,11,09,57,13.90
2018,06,11,09,58,13.90
2018,06,11,09,59,13.90
2018,06,11,10,00,14.00
2018,06,11,10,01,14.00
2018,06,11,10,02,14.10
2018,06,11,10,03,14.10
2018,06,11,10,04,14.10
2018,06,11,10,05,14.10
2018,06,11,10,06,14.10
2018,06,11,10,07,14.10
2018,06,11,10,08,14.20
2018,06,11,10,09,14.30
2018,06,11,10,10,14.40
2018,06,11,10,11,14.50
2018,06,11,10,12,14.50
2018,06,11,10,13,14.60
2018,06,11,10,14,14.60
2018,06,11,10,15,14.60
2018,06,11,10,16,14.60
2018,06,11,10,17,14.60
2018,06,11,10,18,14.60
2018,06,11,10,19,14.70
2018,06,11,10,20,14.80
2018,06,11,10,21,14.80
2018,06,11,10,22,14.90
2018,06,11,10,23,14.90
2018,06,11,10,24,15.00
2018,06,11,10,25,15.00
2018,06,11,10,26,15.00
2018,06,11,10,27,15.00
2018,06,11,10,28,15.00
2018,06,11,10,29,15.00
2018,06,11,10,30,15.00
2018,06,11,10,31,15.00
2018,06,11,10,32,14.90
2018,06,11,10,33,15.00
2018,06,11,10,34,15.00
2018,06,11,10,35,15.00
2018,06,11,10,36,15.00
2018,06,11,10,37,15.00
2018,06,11,10,38,15.00
2018,06,11,10,39,15.00
2018,06,11,10,40,15.00
2018,06,11,10,41,14.90
2018,06,11,10,42,14.90
2018,06,11,10,43,14.90
2018,06,11,10,44,14.80
2018,06,11,10,45,14.80
2018,06,11,10,46,14.80
2018,06,11,10,47,14.80
2018,06,11,10,48,14.90
2018,06,11,10,49,15.00
2018,06,11,10,50,15.10
2018,06,11,10,51,15.20
2018,06,11,10,52,15.20
2018,06,11,10,53,15.30
2018,06,11,10,54,15.30
2018,06,11,10,55,15.30
2018,06,11,10,56,15.30
2018,06,11,10,57,15.30
2018,06,11,10,58,15.30
2018,06,11,10,59,15.40
2018,06,11,11,00,15.40
2018,06,11,11,01,15.40
2018,06,11,11,02,15.40
2018,06,11,11,03,15.40
2018,06,11,11,04,15.40
2018,06,11,11,05,15.40
2018,06,11,11,06,15.40
2018,06,11,11,07,15.40
2018,06,11,11,08,15.50
2018,06,11,11,09,15.50
2018,06,11,11,10,15.60
2018,06,11,11,11,15.60
2018,06,11,11,12,15.50
2018,06,11,11,13,15.40
2018,06,11,11,14,15.40
2018,06,11,11,15,15.30
2018,06,11,11,16,15.20
2018,06,11,11,17,15.20
2018,06,11,11,18,15.20
2018,06,11,11,19,15.20
2018,06,11,11,20,15.20
2018,06,11,11,21,15.20
2018,06,11,11,22,15.20
2018,06,11,11,23,15.30
2018,06,11,11,24,15.30
2018,06,11,11,25,15.40
2018,06,11,11,26,15.50
2018,06,11,11,27,15.40
2018,06,11,11,28,15.30
2018,06,11,11,29,15.20
2018,06,11,11,30,15.20
2018,06,11,11,31,15.20
2018,06,11,11,32,15.30
2018,06,11,11,33,15.20
2018,06,11,11,34,15.20
2018,06,11,11,35,15.20
2018,06,11,11,36,15.20
2018,06,11,11,37,15.20
2018,06,11,11,38,15.30
2018,06,11,11,39,15.40
2018,06,11,11,40,15.40
2018,06,11,11,41,15.50
2018,06,11,11,42,15.60
2018,06,11,11,43,15.70
2018,06,11,11,44,15.70
2018,06,11,11,45,15.70
2018,06,11,11,46,15.70
2018,06,11,11,47,15.70
2018,06,11,11,48,15.60
2018,06,11,11,49,15.60
2018,06,11,11,50,15.70
2018,06,11,11,51,15.80
2018,06,11,11,52,15.80
2018,06,11,11,53,15.80
2018,06,11,11,54,15.80
2018,06,11,11,55,15.80
2018,06,11,11,56,15.80
2018,06,11,11,57,15.80
2018,06,11,11,58,15.80
2018,06,11,11,59,15.80
2018,06,11,12,00,15.90
2018,06,11,12,01,16.00
2018,06,11,12,02,16.10
2018,06,11,12,03,16.20
2018,06,11,12,04,16.20
2018,06,11,12,05,16.10
2018,06,11,12,06,16.00
2018,06,11,12,07,15.90
2018,06,11,12,08,15.80
2018,06,11,12,09,15.70
2018,06,11,12,10,15.70
2018,06,11,12,11,15.70
2018,06,11,12,12,15.70
2018,06,11,12,13,15.70
2018,06,11,12,14,15.80
2018,06,11,12,15,15.90
2018,06,11,12,16,16.00
2018,06,11,12,17,16.10
2018,06,11,12,18,16.10
2018,06,11,12,19,16.20
2018,06,11,12,20,16.30
2018,06,11,12,21,16.30
2018,06,11,12,22,16.40
2018,06,11,12,23,16.40
2018,06,11,12,24,16.40
2018,06,11,12,25,16.30
2018,06,11,12,26,16.30
2018,06,11,12,27,16.20
2018,06,11,12,28,16.20
2018,06,11,12,29,16.20
2018,06,11,12,30,16.30
2018,06,11,12,31,16.30
2018,06,11,12,32,16.30
2018,06,11,12,33,16.30
2018,06,11,12,34,16.20
2018,06,11,12,35,16.30
2018,06,11,12,36,16.30
2018,06,11,12,37,16.30
2018,06,11,12,38,16.30
2018,06,11,12,39,16.20
2018,06,11,12,40,16.10
2018,06,11,12,41,16.00
2018,06,11,12,42,16.00
2018,06,11,12,43,16.00
2018,06,11,12,44,16.00
2018,06,11,12,45,16.10
2018,06,11,12,46,16.20
2018,06,11,12,47,16.20
2018,06,11,12,48,16.20
2018,06,11,12,49,16.20
2018,06,11,12,50,16.20
2018,06,11,12,51,16.20
2018,06,11,12,52,16.30
2018,06,11,12,53,16.20
2018,06,11,12,54,16.10
2018,06,11,12,55,16.10
2018,06,11,12,56,16.00
2018,06,11,12,57,16.00
2018,06,11,12,58,15.90
2018,06,11,12,59,16.00
2018,06,11,13,00,16.10
2018,06,11,13,01,16.20
2018,06,11,13,02,16.30
2018,06,11,13,03,16.40
2018,06,11,13,04,16.40
2018,06,11,13,05,16.40
2018,06,11,13,06,16.30
2018,06,11,13,07,16.30
2018,06,11,13,08,16.20
2018,06,11,13,09,16.20
2018,06,11,13,10,16.20
2018,06,11,13,11,16.30
2018,06,11,13,12,16.40
2018,06,11,13,13,16.40
2018,06,11,13,14,16.40
2018,06,11,13,15,16.40
2018,06,11,13,16,16.40
2018,06,11,13,17,16.40
2018,06,11,13,18,16.30
2018,06,11,13,19,16.30
2018,06,11,13,20,16.30
2018,06,11,13,21,16.30
2018,06,11,13,22,16.30
2018,06,11,13,23,16.30
2018,06,11,13,24,16.30
2018,06,11,13,25,16.30
2018,06,11,13,26,16.30
2018,06,11,13,27,16.30
2018,06,11,13,28,16.30
2018,06,11,13,29,16.30
2018,06,11,13,30,16.30
2018,06,11,13,31,16.30
2018,06,11,13,32,16.40
2018,06,11,13,33,16.40
2018,06,11,13,34,16.40
2018,06,11,13,35,16.50
2018,06,11,13,36,16.50
2018,06,11,13,37,16.50
2018,06,11,13,38,16.40
2018,06,11,13,39,16.40
2018,06,11,13,40,16.50
2018,06,11,13,41,16.50
2018,06,11,13,42,16.60
2018,06,11,13,43,16.60
2018,06,11,13,44,16.60
2018,06,11,13,45,16.50
2018,06,11,13,46,16.40
2018,06,11,13,47,16.40
2018,06,11,13,48,16.30
2018,06,11,13,49,16.40
2018,06,11,13,50,16.40
2018,06,11,13,51,16.50
2018,06,11,13,52,16.60
2018,06,11,13,53,16.60
2018,06,11,13,54,16.60
2018,06,11,13,55,16.60
2018,06,11,13,56,16.60
2018,06,11,13,57,16.60
2018,06,11,13,58,16.60
2018,06,11,13,59,16.60
2018,06,11,14,00,16.60
2018,06,11,14,01,16.70
2018,06,11,14,02,16.80
2018,06,11,14,03,16.90
2018,06,11,14,04,16.90
2018,06,11,14,05,16.90
2018,06,11,14,06,16.90
2018,06,11,14,07,16.90
2018,06,11,14,08,17.00
2018,06,11,14,09,17.00
2018,06,11,14,10,17.10
2018,06,11,14,11,17.20
2018,06,11,14,12,17.10
2018,06,11,14,13,17.00
2018,06,11,14,14,17.00
2018,06,11,14,15,16.90
2018,06,11,14,16,17.00
2018,06,11,14,17,17.00
2018,06,11,14,18,16.90
2018,06,11,14,19,16.80
2018,06,11,14,20,16.60
2018,06,11,14,21,16.40
2018,06,11,14,22,16.40
2018,06,11,14,23,16.30
2018,06,11,14,24,16.30
2018,06,11,14,25,16.30
2018,06,11,14,26,16.40
2018,06,11,14,27,16.50
2018,06,11,14,28,16.60
2018,06,11,14,29,16.80
2018,06,11,14,30,16.80
2018,06,11,14,31,16.90
2018,06,11,14,32,16.90
2018,06,11,14,33,16.80
2018,06,11,14,34,16.80
2018,06,11,14,35,16.90
2018,06,11,14,36,16.90
2018,06,11,14,37,17.00
2018,06,11,14,38,17.00
2018,06,11,14,39,17.10
2018,06,11,14,40,17.10
2018,06,11,14,41,17.10
2018,06,11,14,42,17.00
2018,06,11,14,43,17.00
2018,06,11,14,44,16.90
2018,06,11,14,45,16.90
2018,06,11,14,46,16.80
2018,06,11,14,47,16.80
2018,06,11,14,48,16.80
2018,06,11,14,49,16.70
2018,06,11,14,50,16.70
2018,06,11,14,51,16.70
2018,06,11,14,52,16.60
2018,06,11,14,53,16.60
2018,06,11,14,54,16.60
2018,06,11,14,55,16.60
2018,06,11,14,56,16.60
2018,06,11,14,57,16.60
2018,06,11,14,58,16.60
2018,06,11,14,59,16.60
2018,06,11,15,00,16.70
2018,06,11,15,01,16.80
2018,06,11,15,02,17.00
2018,06,11,15,03,17.10
2018,06,11,15,04,17.20
2018,06,11,15,05,17.30
2018,06,11,15,06,17.30
2018,06,11,15,07,17.40
2018,06,11,15,08,17.40
2018,06,11,15,09,17.40
2018,06,11,15,10,17.50
2018,06,11,15,11,17.60
2018,06,11,15,12,17.60
2018,06,11,15,13,17.70
2018,06,11,15,14,17.90
2018,06,11,15,15,18.10
2018,06,11,15,16,18.20
2018,06,11,15,17,18.30
2018,06,11,15,18,18.40
2018,06,11,15,19,18.40
2018,06,11,15,20,18.30
2018,06,11,15,21,18.20
2018,06,11,15,22,18.00
2018,06,11,15,23,17.90
2018,06,11,15,24,17.70
2018,06,11,15,25,17.50
2018,06,11,15,26,17.40
2018,06,11,15,27,17.30
2018,06,11,15,28,17.30
2018,06,11,15,29,17.30
2018,06,11,15,30,17.40
2018,06,11,15,31,17.40
2018,06,11,15,32,17.50
2018,06,11,15,33,17.50
2018,06,11,15,34,17.50
2018,06,11,15,35,17.50
2018,06,11,15,36,17.60
2018,06,11,15,37,17.70
2018,06,11,15,38,17.80
2018,06,11,15,39,17.80
2018,06,11,15,40,17.90
2018,06,11,15,41,17.90
2018,06,11,15,42,17.90
2018,06,11,15,43,17.90
2018,06,11,15,44,17.90
2018,06,11,15,45,18.00
2018,06,11,15,46,18.20
2018,06,11,15,47,18.20
2018,06,11,15,48,18.30
2018,06,11,15,49,18.30
2018,06,11,15,50,18.30
2018,06,11,15,51,18.30
2018,06,11,15,52,18.20
2018,06,11,15,53,18.10
2018,06,11,15,54,18.10
2018,06,11,15,55,18.00
2018,06,11,15,56,18.00
2018,06,11,15,57,17.90
2018,06,11,15,58,17.90
2018,06,11,15,59,17.90
2018,06,11,16,00,17.90
2018,06,11,16,01,17.90
2018,06,11,16,02,17.90
2018,06,11,16,03,17.90
2018,06,11,16,04,17.90
2018,06,11,16,05,17.90
2018,06,11,16,06,17.90
2018,06,11,16,07,17.90
2018,06,11,16,08,17.90
2018,06,11,16,09,17.90
2018,06,11,16,10,17.90
2018,06,11,16,11,18.00
2018,06,11,16,12,18.00
2018,06,11,16,13,17.90
2018,06,11,16,14,17.90
2018,06,11,16,15,17.80
2018,06,11,16,16,17.80
2018,06,11,16,17,17.70
2018,06,11,16,18,17.70
2018,06,11,16,19,17.70
2018,06,11,16,20,17.70
2018,06,11,16,21,17.60
2018,06,11,16,22,17.60
2018,06,11,16,23,17.60
2018,06,11,16,24,17.60
2018,06,11,16,25,17.60
2018,06,11,16,26,17.60
2018,06,11,16,27,17.70
2018,06,11,16,28,17.70
2018,06,11,16,29,17.70
2018,06,11,16,30,17.70
2018,06,11,16,31,17.70
2018,06,11,16,32,17.80
2018,06,11,16,33,17.80
2018,06,11,16,34,17.80
2018,06,11,16,35,17.90
2018,06,11,16,36,17.80
2018,06,11,16,37,17.90
2018,06,11,16,38,17.90
2018,06,11,16,39,18.00
2018,06,11,16,40,18.00
2018,06,11,16,41,18.10
2018,06,11,16,42,18.20
2018,06,11,16,43,18.20
2018,06,11,16,44,18.20
2018,06,11,16,45,18.30
2018,06,11,16,46,18.30
2018,06,11,16,47,18.20
2018,06,11,16,48,18.20
2018,06,11,16,49,18.10
2018,06,11,16,50,18.10
2018,06,11,16,51,18.10
2018,06,11,16,52,18.00
2018,06,11,16,53,18.00
2018,06,11,16,54,18.00
2018,06,11,16,55,18.00
2018,06,11,16,56,18.00
2018,06,11,16,57,18.00
2018,06,11,16,58,18.10
2018,06,11,16,59,18.10
2018,06,11,17,00,18.20
2018,06,11,17,01,18.30
2018,06,11,17,02,18.40
2018,06,11,17,03,18.50
2018,06,11,17,04,18.60
2018,06,11,17,05,18.70
2018,06,11,17,06,18.70
2018,06,11,17,07,18.60
2018,06,11,17,08,18.60
2018,06,11,17,09,18.50
2018,06,11,17,10,18.50
2018,06,11,17,11,18.30
2018,06,11,17,12,18.20
2018,06,11,17,13,18.10
2018,06,11,17,14,18.00
2018,06,11,17,15,17.90
2018,06,11,17,16,17.80
2018,06,11,17,17,17.70
2018,06,11,17,18,17.70
2018,06,11,17,19,17.70
2018,06,11,17,20,17.70
2018,06,11,17,21,17.70
2018,06,11,17,22,17.80
2018,06,11,17,23,17.80
2018,06,11,17,24,17.90
2018,06,11,17,25,17.90
2018,06,11,17,26,17.90
2018,06,11,17,27,17.80
2018,06,11,17,28,17.80
2018,06,11,17,29,17.70
2018,06,11,17,30,17.70
2018,06,11,17,31,17.70
2018,06,11,17,32,17.60
2018,06,11,17,33,17.60
2018,06,11,17,34,17.60
2018,06,11,17,35,17.60
2018,06,11,17,36,17.60
2018,06,11,17,37,17.60
2018,06,11,17,38,17.60
2018,06,11,17,39,17.60